Home > Weather > Chisinau > Past weeks

Flag for Moldova Weather for the Past 2 Weeks in Chisinau, Moldova

Now
32 °F

Passing clouds.


Feels Like: 26 °F
Forecast: 43 / 55 °F
Wind: 6 mph from Southeast

Location: Chisinau International Airport

Current Time: Feb 13, 2016 at 3:18:07 AM

Latest Report: Feb 13, 2016 at 3:00 AM


Visibility: N/A

Pressure: 29.89 "Hg

Humidity: 93%

Dew point: 30 °F

Location of ChisinauLocation

Historic Weather in Chisinau — Graph

°F

Chisinau Temperature Yesterday

Maximum temperature yesterday: 50 °F (at 1:30 PM)
Minimum temperature yesterday: 30 °F (at 8:00 AM)
Average temperature yesterday: 39 °F

High & Low Weather Summary for the Past Weeks

 TemperatureHumidityPressure
High54 °F (Feb 3, 1:30 PM)100% (Jan 30, 6:00 PM)30.39 "Hg (Jan 30, 6:00 PM)
Low25 °F (Feb 7, 2:00 AM)43% (Feb 12, 2:30 PM)29.42 "Hg (Feb 11, 4:30 AM)
Average39 °F79%30.04 "Hg
* Reported Jan 29 1:30 AM — Feb 13 1:00 AM, Chisinau, Weather by CustomWeather, © 2016

Note: Actual official high and low records may vary slightly from our data, if they occured in-between our weather recording intervals... More about our weather records

Advertising

Chisinau Weather History for the Previous 24 Hours

 ConditionsComfort  
Time TempWeatherWind HumidityBarometerVisibility
1:00 AM
Sat, Feb 13
34 °FPassing clouds.5 mph87%29.92 "HgN/A
12:00 AM36 °FClear.6 mph87%29.92 "Hg10 mi
11:30 PM
Fri, Feb 12
36 °FClear.8 mph87%29.92 "Hg10 mi
11:00 PM37 °FClear.7 mph81%29.92 "Hg10 mi
10:30 PM37 °FClear.7 mph81%29.95 "Hg10 mi
10:00 PM37 °FClear.6 mph81%29.95 "Hg10 mi
9:30 PM37 °FClear.6 mph75%29.95 "Hg10 mi
9:00 PM37 °FClear.8 mph75%29.95 "Hg10 mi
8:30 PM37 °FClear.7 mph75%29.95 "Hg10 mi
8:00 PM37 °FClear.5 mph70%29.95 "Hg10 mi
7:30 PM37 °FClear.6 mph70%29.95 "Hg10 mi
7:00 PM39 °FClear.7 mph65%29.95 "Hg10 mi
6:30 PM39 °FClear.7 mph65%29.95 "Hg10 mi
6:00 PM41 °FClear.6 mph61%29.92 "Hg10 mi
5:30 PM43 °FPassing clouds.7 mph61%29.92 "HgN/A
5:00 PM46 °FPassing clouds.6 mph53%29.92 "HgN/A
4:30 PM48 °FPassing clouds.7 mph46%29.92 "HgN/A
4:00 PM48 °FPassing clouds.7 mph50%29.92 "HgN/A
3:30 PM50 °FPassing clouds.8 mph47%29.92 "HgN/A
3:00 PM50 °FPassing clouds.7 mph47%29.92 "HgN/A
2:30 PM50 °FPassing clouds.8 mph43%29.92 "HgN/A
2:00 PM50 °FPassing clouds.6 mph47%29.92 "HgN/A
1:30 PM50 °FSunny.3 mph47%29.92 "Hg10 mi
1:00 PM48 °FSunny.3 mph54%29.92 "Hg10 mi
12:30 PM46 °FSunny.2 mph57%29.92 "Hg10 mi
12:00 PM45 °FPassing clouds.5 mph61%29.92 "HgN/A
11:30 AM43 °FSunny.2 mph66%29.92 "Hg10 mi
11:00 AM41 °FSunny.1 mph66%29.95 "Hg10 mi
10:30 AM39 °FSunny.No wind70%29.92 "Hg10 mi
10:00 AM37 °FClear.1 mph70%29.92 "Hg4 mi
9:30 AM36 °FSunny.No wind81%29.92 "Hg10 mi
9:00 AM32 °FSunny.No wind87%29.92 "Hg10 mi
8:30 AM34 °FPassing clouds.3 mph81%29.92 "HgN/A
8:00 AM30 °FSunny.1 mph80%29.92 "Hg10 mi
7:30 AM32 °FSunny.3 mph75%29.92 "Hg10 mi
7:00 AM32 °FClear.2 mph80%29.89 "Hg10 mi
6:30 AM32 °FClear.5 mph80%29.89 "Hg10 mi
6:00 AM32 °FClear.No wind80%29.89 "Hg10 mi
5:30 AM34 °FClear.2 mph75%29.89 "Hg10 mi
5:00 AM32 °FClear.7 mph80%29.86 "Hg10 mi
4:30 AM32 °FPassing clouds.3 mph80%29.86 "HgN/A
4:00 AM34 °FClear.5 mph75%29.83 "Hg10 mi
3:30 AM32 °FPassing clouds.5 mph80%29.83 "HgN/A
3:00 AM32 °FPassing clouds.5 mph80%29.83 "HgN/A
Weather by CustomWeather, © 2016

See weather overviewHow to use our weather pages